ARIANE 2 DEB, 29023

Orbit data source: Space-Track

ARIANE 2 DEB, 29023 is space debris in HEO originally from a launch on Fri, 27 Jan 1989 UTC launched from the French Guiana (FRGUI). Debris objects in space refer to the collection of defunct objects orbiting the Earth. Examples of debris include non-operational satellites, rocket bodies, and fragments generated from explosions, collisions, or faulty payload assembly.

Loading next visibility...
Identifier
29023, 1989-006AP
Orbit
HEO
Country
Flag of FRFR
Related business
Manufacturer
EADS/LV
Mission
Spacecraft
Bus & Motor
Unknown
Mass
Unknown
Launch date (UTC)
1989-01-27 (37 years ago)
Launch vehicle
Unknown
Launch site
French Guiana (FRGUI)
Object type
Payload
Rocket body
Debris
Shape & HBR
Unknown shape, 1.1 m
Radar Cross Section
Medium (>0.1 m² and <1 m²)

Expand to show TLE details & history
Last TLE update: 2 days ago

TLE from 2 days ago
0 ARIANE 2 DEB
1 29023U 89006AP  25289.63407476  .00000081  00000-0  10990-1 0  9991
2 29023   8.0368  70.8031 7087799 101.6592 294.6066  2.25244596 94604
Epoch: 2025-10-16T15:13Z
TLE epoch observation values (Epoch: 2025-10-16T15:13:04.059Z)
Latitude
-5.49213°
Longitude
134.35512°
Altitude
22,671.2 km
Speed
3.351 km/s
True Right ascension
01h 52m 03s
True Declination
-5° 29' 03"
Sunlit
Object was in daylight at epoch
Visualization orbit readout
Latitude
Unknown
Longitude
Unknown
Altitude
Unknown
Speed
Unknown
Apparent Right ascension
Unknown
Apparent Declination
Unknown
Sunlit
N/A
Visualization observer readout
Local Sidereal Time
08:38:34
Azimuth
Unknown
Elevation
Unknown
Doppler factor
Unknown
Orbital elements
Apogee altitude
35,637.037 km
Perigee altitude
782.331 km
Semi-major axis
24,587.821 km
Eccentricity
0.70878
Inclination
8.0368°
RAAN
70.8031°
Arg. of periapsis
101.6592°
True anomaly
215.34574°
Mean anomaly
294.6066°
Eccentric anomaly
255.32184°
Mean motion
0.56294 °/min
Orbital period
639.5 mins
BSTAR
0.01099
Loading maneuver chart data...
Computing Atmospheric mass density...
Loading historical data...
Loading historical data...
Loading historical data...
Loading historical data...
Loading historical data...
Loading historical data...
Loading historical data...

Documentation

Showing up to 5 results
|